{"data":{"norad_id":57950,"intl_designator":"2023-148R","name":"STARLINK-30701","alt_names":[],"object_type":"PAYLOAD","status":"ACTIVE","operator":null,"country":"US","launch_date":"2023-09-25","launch_site_code":"AFWTR","launch_vehicle":null,"mission":null,"orbit_class":"UNKNOWN","rcs_meters":null,"size_class":null,"mass_kg":null,"dimensions":null,"purposes":["comms"],"wikipedia_slug":null,"has_3d_model":false,"image_url":null,"decayed_at":null,"tle_current":{"epoch":"2026-09-20T05:17:12.682752Z","epoch_age_seconds":161754,"freshness":"FRESH","line1":"1 57950U 23148R   26263.22028568  .00001870  00000+0  66468-4 0  9995","line2":"2 57950  53.1595 197.2999 0000787  70.7903 289.3185 15.34401321168252","mean_motion":15.34401321,"eccentricity":7.87e-5,"inclination_deg":53.1595,"raan_deg":197.2999,"arg_perigee_deg":70.7903,"mean_anomaly_deg":289.3185,"bstar":6.6468e-5,"rev_number":16825,"period_min":93.847677285726,"perigee_km":462.16094010163,"apogee_km":463.23768773744,"semimajor_km":6840.8363139195,"source":"CELESTRAK","updated_at":"2026-09-21T09:00:33.747101Z"}}}